Location: ????????
(55.8351°N, 38.7040°E)
Time: 13:39:18
(UTC+00:00)

COSMOS 2441 - Pass Details

Date: 14 April 2024
Orbit: 705 x 730 km, 98.2° (Epoch: 23 May)

Event Time Altitude Azimuth Distance (km) Brightness Sun altitude
Rises 23:58:45 0° 15° (NNE) 3,169 8.9 -17.3°
Reaches altitude 10° 00:01:02 10° 16° (NNE) 2,241 7.9 -17.1°
Maximum altitude 00:05:59 89° 101° (E) 736 4.4 -16.7°
Enters shadow 00:08:53 25° 197° (SSW) 1,445 5.4 -16.4°
